Change the Weather History Date:

Thursday, January 10, 2013

  Actual Average Record
Temperature  
Mean Temperature 33 °F 12 °F  
Max Temperature 38 °F 22 °F 52 °F (2012)
Min Temperature 27 °F 3 °F -30 °F (1982)
Degree Days  
Heating Degree Days 32 53  
Month to date heating degree days 463 523  
Since 1 July heating degree days 3820 3982  
Cooling Degree Days 0 0  
Month to date cooling degree days 0 0  
Year to date cooling degree days 0 0  
Moisture  
Dew Point 28 °F    
Average Humidity 77    
Maximum Humidity 100    
Minimum Humidity 54    
Precipitation  
Precipitation 0.04 in 0.01 in 0.22 in (2011)
Month to date precipitation 0.04 0.17  
Year to date precipitation 0.04 0.17  
Snow  
Snow 0.00 in - - ()
Month to date snowfall T  
Since 1 July snowfall 10.7  
Snow Depth 7.00 in    
Sea Level Pressure  
Sea Level Pressure 29.82 in    
Wind  
Wind Speed 18 mph (South)    
Max Wind Speed 28 mph    
Max Gust Speed 35 mph    
Visibility 8 miles    
Events      
T = Trace of Precipitation, MM = Missing Value Source: NWS Daily Summary

Daily Weather History Graph

Daily Weather History Graph

Search for Another Location

Airport or City:

Trip Planner

Search our weather history database for the weather conditions in past years. The results will help you decide how hot, cold, wet, or windy it might be!

Date:

Astronomy

Jan. 10, 2013 Rise Set
Actual Time 8:05 AM CST 5:07 PM CST
Civil Twilight 7:32 AM CST 5:40 PM CST
Nautical Twilight 6:55 AM CST 6:17 PM CST
Astronomical Twilight 6:20 AM CST 6:52 PM CST
Moon 6:45 AM CST (1/10) 4:17 PM CST (1/10)
Length of Visible Light 10h 08m
Length of Day
9h 02m
Waning Crescent, 2% of the Moon is Illuminated
Jan 10
Waning Crescent
Jan 11
New
Jan 18
First Quarter
Jan 26
Full
Feb 3
Last Quarter

Hourly Weather History & Observations

Time (CST) Temp. Windchill Dew Point Humidity Pressure Visibility Wind Dir Wind Speed Gust Speed Precip Events Conditions
12:53 AM 27.0 °F 16.1 °F 23.0 °F 85% 30.14 in 10.0 mi SSE 12.7 mph - N/A   Clear
1:53 AM 34.0 °F 22.1 °F 26.1 °F 73% 30.12 in 10.0 mi South 21.9 mph 28.8 mph N/A   Clear
2:53 AM 36.0 °F 26.0 °F 27.0 °F 70% 30.12 in 10.0 mi South 17.3 mph 25.3 mph N/A   Clear
3:53 AM 35.1 °F 24.8 °F 26.1 °F 70% 30.12 in 10.0 mi South 17.3 mph 26.5 mph N/A   Clear
4:53 AM 35.1 °F 24.1 °F 26.1 °F 70% 30.09 in 10.0 mi South 19.6 mph 25.3 mph N/A   Clear
5:53 AM 35.1 °F 25.9 °F 26.1 °F 70% 30.06 in 10.0 mi South 13.8 mph 21.9 mph N/A   Clear
6:53 AM 34.0 °F 22.4 °F 26.1 °F 73% 30.06 in 10.0 mi South 20.7 mph 25.3 mph N/A   Clear
7:53 AM 30.0 °F 19.1 °F 24.1 °F 79% 30.07 in 10.0 mi SSE 15.0 mph - N/A   Clear
8:53 AM 28.9 °F 19.2 °F 23.0 °F 78% 30.08 in 10.0 mi South 11.5 mph - N/A   Clear
9:53 AM 35.1 °F 25.2 °F 25.0 °F 67% 30.05 in 10.0 mi South 16.1 mph - N/A   Clear
10:53 AM 35.1 °F 24.8 °F 25.0 °F 67% 30.01 in 10.0 mi South 17.3 mph - N/A   Clear
11:53 AM 37.9 °F 27.6 °F 24.1 °F 57% 29.96 in 10.0 mi South 20.7 mph 28.8 mph N/A   Clear
12:53 PM 37.0 °F 26.2 °F 23.0 °F 57% 29.91 in 10.0 mi South 21.9 mph - N/A   Clear
1:53 PM 34.0 °F 23.8 °F 24.1 °F 67% 29.88 in 10.0 mi South 16.1 mph - N/A   Overcast
2:30 PM 33.8 °F 25.8 °F 24.8 °F 70% 29.80 in 10.0 mi SSE 10.4 mph 20.7 mph N/A   Overcast
2:53 PM 34.0 °F 23.8 °F 25.0 °F 70% 29.84 in 10.0 mi South 16.1 mph 21.9 mph N/A   Overcast
3:09 PM 33.8 °F 23.2 °F 26.6 °F 75% 29.78 in 10.0 mi SSE 17.3 mph 25.3 mph N/A   Overcast
3:53 PM 33.1 °F 22.6 °F 28.9 °F 85% 29.81 in 10.0 mi SSE 16.1 mph - 0.00 in   Overcast
4:26 PM 33.8 °F 23.2 °F 30.2 °F 87% 29.73 in 9.0 mi South 17.3 mph - 0.01 in   Overcast
4:53 PM 33.1 °F 23.0 °F 32.0 °F 96% 29.75 in 10.0 mi South 15.0 mph 24.2 mph 0.01 in   Overcast
5:26 PM 33.8 °F 22.8 °F 30.2 °F 87% 29.67 in 10.0 mi SSE 18.4 mph 27.6 mph 0.00 in   Overcast
5:53 PM 33.1 °F 22.6 °F 30.9 °F 92% 29.70 in 10.0 mi SSE 16.1 mph 23.0 mph 0.01 in   Overcast
6:39 PM 33.8 °F 23.9 °F 30.2 °F 87% 29.65 in 10.0 mi SSE 15.0 mph 23.0 mph N/A   Overcast
6:53 PM 33.1 °F 21.2 °F 30.0 °F 89% 29.71 in 10.0 mi SSE 20.7 mph 27.6 mph 0.00 in   Overcast
7:22 PM 32.0 °F 20.8 °F 30.2 °F 93% 29.66 in 10.0 mi South 17.3 mph - 0.00 in   Overcast
7:53 PM 32.0 °F 19.8 °F 30.9 °F 96% 29.69 in 9.0 mi South 20.7 mph - 0.01 in   Overcast
8:53 PM 32.0 °F 20.5 °F 30.9 °F 96% 29.63 in 8.0 mi SSE 18.4 mph - 0.00 in   Overcast
9:53 PM 32.0 °F 19.5 °F 32.0 °F 100% 29.61 in 7.0 mi South 21.9 mph - 0.01 in   Overcast
10:30 PM 33.8 °F 22.5 °F 32.0 °F 93% 29.55 in 4.0 mi South 19.6 mph - N/A   Overcast
10:51 PM 33.8 °F 22.5 °F 32.0 °F 93% 29.53 in 2.5 mi South 19.6 mph 24.2 mph N/A   Overcast
10:53 PM 33.1 °F 21.5 °F 32.0 °F 96% 29.58 in 2.5 mi South 19.6 mph 26.5 mph N/A   Overcast
11:24 PM 32.0 °F 20.1 °F 32.0 °F 100% 29.51 in 1.8 mi South 19.6 mph - N/A   Overcast
11:31 PM 32.0 °F 20.1 °F 32.0 °F 100% 29.51 in 2.0 mi South 19.6 mph - N/A   Overcast
11:53 PM 33.1 °F 23.0 °F 33.1 °F 100% 29.56 in 3.0 mi South 15.0 mph - N/A   Overcast